Location: Key Biscayne
(25.6930°N, 80.1630°W)
Time: 14:36:23
(UTC-05:00)

Vanguard 2 Rocket - Visible Passes

Search period start: 17 February 2018 00:00
Search period end: 27 February 2018 00:00
Orbit: 555 x 3327 km, 32.9° (Epoch: 17 February)

Date Brightness Start Highest point End Pass type
(mag) Time Alt. Az. Time Alt. Az. Time Alt. Az.
17 Feb 10.6 01:05:39 26° ENE 01:05:39 26° ENE 01:11:55 10° ENE visible
17 Feb 9.5 03:11:26 71° N 03:12:00 71° N 03:31:15 10° E visible
17 Feb 9.4 05:17:14 25° WNW 05:32:09 85° SSW 05:47:46 10° ESE visible
17 Feb 9.3 21:23:32 10° SSW 21:26:54 27° SSW 21:26:54 27° SSW visible
18 Feb 9.8 02:15:09 53° ENE 02:15:09 53° ENE 02:29:21 10° E visible
18 Feb 9.5 04:20:57 46° WNW 04:29:50 84° NNE 04:47:24 10° ESE visible
18 Feb 9.6 06:28:41 10° WNW 06:47:53 55° SW 07:01:22 10° SE visible
18 Feb 9.0 20:25:36 10° SSW 20:31:07 30° SSE 20:31:07 30° SSE visible
18 Feb 10.2 22:36:30 10° WSW 22:36:57 12° WSW 22:36:57 12° WSW visible
19 Feb 10.4 01:18:55 30° ENE 01:18:55 30° ENE 01:26:55 10° ENE visible
19 Feb 9.4 03:24:43 71° NNW 03:27:05 76° NNE 03:46:18 10° E visible
19 Feb 9.5 05:30:32 21° WNW 05:46:28 70° SSW 06:02:01 10° SE visible
19 Feb 9.2 19:28:51 10° SSE 19:33:58 18° SE 19:35:21 17° ESE visible
19 Feb 9.2 21:37:30 10° SW 21:41:12 32° SW 21:41:12 32° SW visible
20 Feb 11.0 00:22:45 13° ENE 00:22:45 13° ENE 00:24:07 10° ENE visible
20 Feb 9.7 02:28:33 61° ENE 02:28:33 61° ENE 02:44:30 10° E visible
20 Feb 9.4 04:34:21 41° WNW 04:44:26 84° SSW 05:01:58 10° ESE visible
20 Feb 8.5 20:39:03 10° SSW 20:45:27 45° SSE 20:45:27 45° SSE visible
20 Feb 10.3 22:51:09 10° WSW 22:51:18 11° WSW 22:51:18 11° WSW visible
21 Feb 10.3 01:32:27 35° ENE 01:32:27 35° ENE 01:42:04 10° E visible
21 Feb 9.4 03:38:15 70° NW 03:41:56 85° NNE 04:01:09 10° ESE visible
21 Feb 9.7 05:44:04 17° WNW 06:00:29 55° SW 06:15:49 10° SE visible
21 Feb 8.7 19:41:17 10° SSW 19:47:32 29° SE 19:49:43 27° ESE visible
21 Feb 9.2 21:51:53 10° WSW 21:55:33 33° WSW 21:55:33 33° WSW visible
22 Feb 10.9 00:36:24 16° ENE 00:36:24 16° ENE 00:39:09 10° ENE visible
22 Feb 9.5 02:42:13 69° ENE 02:42:13 69° ENE 02:59:34 10° ESE visible
22 Feb 9.5 04:48:02 37° WNW 04:58:44 69° SSW 05:16:08 10° SE visible
22 Feb 9.1 18:44:53 10° SSE 18:48:35 15° SE 18:53:17 10° E visible
22 Feb 8.1 20:53:05 10° SW 20:59:49 64° S 20:59:49 64° S visible
22 Feb10.423:40:25ENE23:40:25ENE23:05:40Wvisible
23 Feb 10.1 01:46:15 40° E 01:46:15 40° E 01:57:15 10° E visible
23 Feb 9.4 03:52:04 65° W 03:56:31 82° SSW 04:15:40 10° ESE visible
23 Feb 9.9 05:57:54 13° W 06:14:16 41° SW 06:29:03 10° SSE visible
23 Feb 8.1 19:54:46 10° SSW 20:01:20 46° SE 20:04:05 38° ESE visible
23 Feb 9.3 22:06:35 10° WSW 22:09:55 30° W 22:09:55 30° W visible
24 Feb 10.8 00:50:20 19° E 00:50:20 19° E 00:54:20 10° E visible
24 Feb 9.4 02:56:10 78° E 02:56:10 78° E 03:14:23 10° ESE visible
24 Feb 9.7 05:02:00 32° W 05:12:46 55° SW 05:29:49 10° SE visible
24 Feb 8.5 18:57:07 10° S 19:02:14 26° SE 19:08:18 14° E visible
24 Feb 8.1 21:07:32 10° WSW 21:14:09 73° WSW 21:14:09 73° WSW visible
24 Feb10.523:54:29E23:54:29E23:19:58Wvisible
25 Feb 10.0 02:00:20 45° E 02:00:20 45° E 02:12:19 10° ESE visible
25 Feb 9.4 04:06:09 58° W 04:10:49 68° SSW 04:29:45 10° SE visible
25 Feb 10.2 06:12:19 10° W 06:28:00 29° SW 06:41:30 10° S visible
25 Feb 7.7 20:08:51 10° SW 20:15:28 68° SSE 20:18:21 48° E visible
25 Feb 9.6 22:21:30 10° W 22:24:11 25° W 22:24:11 25° W visible
26 Feb 10.7 01:04:32 22° E 01:04:32 22° E 01:09:32 10° E visible
26 Feb 9.4 03:10:23 77° SSE 03:10:23 77° SSE 03:28:49 10° ESE visible
26 Feb 9.9 05:16:14 26° W 05:26:40 41° SW 05:42:54 10° SSE visible
26 Feb 7.8 19:10:37 10° SSW 19:16:06 43° SE 19:22:30 18° E visible
26 Feb 8.3 21:22:16 10° W 21:28:21 61° WNW 21:28:21 61° WNW visible
